| time (UTC) | temp F | wind direction | speed MPH | gust MPH | rain 1hr in | rain 24hr in | rain mn in | humidity % | barometer mb |
| 20260506123507 | 40 | 53 | 4.0 | 0.0 | 0.00 | 0.00 | 0.00 | 91 | 976.3 |
| 20260506122312 | 39 | 14 | 0.0 | 0.0 | 0.00 | 0.00 | 0.00 | 93 | 976.2 |
| 20260506122149 | 39 | 14 | 0.0 | 0.0 | 0.00 | 0.00 | 0.00 | 93 | 976.2 |
| 20260506121511 | 39 | 14 | 0.0 | 0.0 | 0.00 | 0.00 | 0.00 | 94 | 976.3 |
| 20260506120910 | 38 | 14 | 0.0 | 0.0 | 0.00 | 0.00 | 0.00 | 95 | 976.4 |
| 20260506120831 | 38 | 14 | 0.0 | 0.0 | 0.00 | 0.00 | 0.00 | 95 | 976.4 |
| 20260506120230 | 37 | 14 | 0.0 | 0.0 | 0.00 | 0.00 | 0.00 | 96 | 976.3 |
| 20260506120153 | 37 | 14 | 0.0 | 0.0 | 0.00 | 0.00 | 0.00 | 96 | 976.3 |
| 20260506115512 | 36 | 14 | 0.0 | 0.0 | 0.00 | 0.00 | 0.00 | 97 | 976.2 |
| 20260506114835 | 36 | 15 | 0.0 | 0.0 | 0.00 | 0.00 | 0.00 | 98 | 976.1 |
| 20260506114241 | 35 | 15 | 0.0 | 0.0 | 0.00 | 0.00 | 0.00 | 99 | 976.0 |
| 20260506114154 | 35 | 15 | 0.0 | 0.0 | 0.00 | 0.00 | 0.00 | 99 | 976.0 |
| 20260506113731 | 34 | 15 | 0.0 | 0.0 | 0.00 | 0.00 | 0.00 | 99 | 976.0 |
| 20260506113517 | 34 | 15 | 0.0 | 0.0 | 0.00 | 0.00 | 0.00 | 99 | 976.0 |
| 20260506112158 | 34 | 13 | 5.0 | 4.0 | 0.00 | 0.00 | 0.00 | 100 | 975.9 |
| 20260506111517 | 33 | 24 | 4.0 | 3.0 | 0.00 | 0.00 | 0.00 | 100 | 976.0 |
| 20260506110840 | 33 | 4 | 3.0 | 4.0 | 0.00 | 0.00 | 0.00 | 100 | 975.8 |
| 20260506110159 | 33 | 25 | 5.0 | 5.0 | 0.00 | 0.00 | 0.00 | 99 | 975.8 |
| 20260506105521 | 33 | 20 | 4.0 | 5.0 | 0.00 | 0.00 | 0.00 | 99 | 975.8 |
| 20260506104840 | 34 | 11 | 4.0 | 5.0 | 0.00 | 0.00 | 0.00 | 99 | 975.8 |
| 20260506104357 | 34 | 347 | 4.0 | 5.0 | 0.00 | 0.00 | 0.00 | 99 | 975.9 |
| 20260506104203 | 34 | 347 | 4.0 | 5.0 | 0.00 | 0.00 | 0.00 | 99 | 975.9 |
| 20260506103709 | 34 | 335 | 3.0 | 2.0 | 0.00 | 0.00 | 0.00 | 99 | 975.8 |
| 20260506103522 | 34 | 335 | 3.0 | 2.0 | 0.00 | 0.00 | 0.00 | 99 | 975.8 |
| 20260506102845 | 34 | 353 | 4.0 | 5.0 | 0.00 | 0.00 | 0.00 | 98 | 976.0 |
| 20260506102355 | 34 | 359 | 7.0 | 5.0 | 0.00 | 0.00 | 0.00 | 98 | 975.8 |
| 20260506102204 | 34 | 359 | 7.0 | 5.0 | 0.00 | 0.00 | 0.00 | 98 | 975.8 |
| 20260506101714 | 34 | 356 | 7.0 | 7.0 | 0.00 | 0.00 | 0.00 | 98 | 975.7 |
| 20260506101526 | 34 | 356 | 7.0 | 7.0 | 0.00 | 0.00 | 0.00 | 98 | 975.7 |
| 20260506100845 | 34 | 347 | 4.0 | 5.0 | 0.00 | 0.00 | 0.00 | 98 | 975.8 |
| 20260506100359 | 34 | 328 | 4.0 | 3.0 | 0.00 | 0.00 | 0.00 | 97 | 975.8 |
| 20260506100208 | 34 | 328 | 4.0 | 3.0 | 0.00 | 0.00 | 0.00 | 97 | 975.8 |
| 20260506095527 | 34 | 349 | 4.0 | 6.0 | 0.00 | 0.00 | 0.00 | 97 | 975.7 |
| 20260506094849 | 35 | 6 | 1.0 | 0.0 | 0.00 | 0.00 | 0.00 | 96 | 975.6 |
| 20260506094208 | 35 | 316 | 3.0 | 5.0 | 0.00 | 0.00 | 0.00 | 95 | 975.5 |
| 20260506093531 | 35 | 346 | 4.0 | 3.0 | 0.00 | 0.00 | 0.00 | 95 | 975.5 |
| 20260506092850 | 35 | 332 | 2.0 | 5.0 | 0.00 | 0.00 | 0.00 | 95 | 975.3 |
| 20260506092213 | 35 | 345 | 4.0 | 4.0 | 0.00 | 0.00 | 0.00 | 95 | 975.3 |
| 20260506091532 | 35 | 347 | 0.0 | 0.0 | 0.00 | 0.00 | 0.00 | 94 | 975.1 |
| 20260506090854 | 35 | 353 | 4.0 | 3.0 | 0.00 | 0.00 | 0.00 | 94 | 974.9 |
| 20260506090213 | 35 | 308 | 0.0 | 0.0 | 0.00 | 0.00 | 0.00 | 94 | 974.8 |
| 20260506085536 | 35 | 308 | 0.0 | 0.0 | 0.00 | 0.00 | 0.00 | 93 | 974.7 |
| 20260506084855 | 36 | 343 | 4.0 | 4.0 | 0.00 | 0.00 | 0.00 | 93 | 974.7 |
| 20260506083536 | 36 | 338 | 0.0 | 6.0 | 0.00 | 0.00 | 0.00 | 92 | 974.7 |
| 20260506082859 | 36 | 329 | 0.0 | 0.0 | 0.00 | 0.00 | 0.00 | 93 | 974.8 |
| 20260506082218 | 35 | 333 | 0.0 | 5.0 | 0.00 | 0.00 | 0.00 | 92 | 974.8 |
| 20260506081540 | 35 | 309 | 2.0 | 0.0 | 0.00 | 0.00 | 0.00 | 92 | 974.9 |
| 20260506080859 | 36 | 267 | 0.0 | 0.0 | 0.00 | 0.00 | 0.00 | 91 | 974.8 |
| 20260506080222 | 36 | 267 | 0.0 | 0.0 | 0.00 | 0.00 | 0.00 | 91 | 974.8 |
| 20260506072904 | 36 | 267 | 0.0 | 0.0 | 0.00 | 0.00 | 0.00 | 91 | 974.6 |
| 20260506072426 | 35 | 267 | 0.0 | 0.0 | 0.00 | 0.00 | 0.00 | 91 | 974.5 |
| 20260506072227 | 35 | 267 | 0.0 | 0.0 | 0.00 | 0.00 | 0.00 | 91 | 974.5 |
| 20260506070908 | 36 | 267 | 0.0 | 0.0 | 0.00 | 0.00 | 0.00 | 90 | 974.5 |
| 20260506070227 | 36 | 267 | 0.0 | 0.0 | 0.00 | 0.00 | 0.00 | 89 | 974.5 |
| 20260506062232 | 38 | 267 | 0.0 | 0.0 | 0.00 | 0.00 | 0.00 | 87 | 974.5 |
| 20260506061554 | 38 | 267 | 0.0 | 0.0 | 0.00 | 0.00 | 0.00 | 87 | 974.4 |
| 20260506060913 | 38 | 267 | 0.0 | 0.0 | 0.00 | 0.00 | 0.00 | 86 | 974.6 |
| 20260506060236 | 38 | 267 | 0.0 | 0.0 | 0.00 | 0.00 | 0.00 | 86 | 974.6 |
| 20260506050922 | 39 | 267 | 0.0 | 0.0 | 0.00 | 0.00 | 0.00 | 79 | 974.7 |
| 20260506050241 | 40 | 267 | 0.0 | 0.0 | 0.00 | 0.00 | 0.00 | 78 | 974.3 |
| 20260506044922 | 40 | 267 | 0.0 | 0.0 | 0.00 | 0.00 | 0.00 | 78 | 974.2 |
| 20260506044245 | 40 | 267 | 0.0 | 0.0 | 0.00 | 0.00 | 0.00 | 76 | 974.2 |
| 20260506043604 | 41 | 267 | 0.0 | 0.0 | 0.00 | 0.00 | 0.00 | 74 | 974.2 |
| 20260506042926 | 41 | 267 | 0.0 | 0.0 | 0.00 | 0.00 | 0.00 | 73 | 974.3 |
| 20260506042245 | 41 | 267 | 0.0 | 0.0 | 0.00 | 0.00 | 0.00 | 72 | 974.4 |
| 20260506041608 | 41 | 267 | 0.0 | 0.0 | 0.00 | 0.00 | 0.00 | 72 | 974.3 |
| 20260506040927 | 41 | 267 | 0.0 | 0.0 | 0.00 | 0.00 | 0.00 | 72 | 974.2 |
| 20260506040249 | 42 | 267 | 0.0 | 0.0 | 0.00 | 0.00 | 0.00 | 72 | 974.2 |
| 20260506035608 | 42 | 267 | 0.0 | 0.0 | 0.00 | 0.02 | 0.00 | 71 | 974.1 |
| 20260506034931 | 42 | 267 | 0.0 | 0.0 | 0.00 | 0.02 | 0.00 | 69 | 974.1 |
| 20260506034250 | 43 | 267 | 0.0 | 0.0 | 0.00 | 0.02 | 0.00 | 67 | 974.1 |
| 20260506033612 | 43 | 267 | 0.0 | 0.0 | 0.00 | 0.02 | 0.00 | 66 | 974.3 |
| 20260506032254 | 44 | 267 | 0.0 | 0.0 | 0.00 | 0.02 | 0.00 | 64 | 974.2 |
| 20260506031613 | 44 | 267 | 0.0 | 0.0 | 0.00 | 0.02 | 0.00 | 63 | 974.1 |
| 20260506030935 | 45 | 267 | 0.0 | 0.0 | 0.00 | 0.02 | 0.00 | 62 | 974.1 |
| 20260506030255 | 45 | 267 | 0.0 | 0.0 | 0.00 | 0.02 | 0.00 | 62 | 974.0 |
| 20260506025617 | 46 | 267 | 0.0 | 0.0 | 0.00 | 0.02 | 0.00 | 60 | 973.9 |
| 20260506024936 | 46 | 267 | 0.0 | 0.0 | 0.00 | 0.02 | 0.00 | 59 | 973.9 |
| 20260506024259 | 46 | 267 | 0.0 | 0.0 | 0.00 | 0.02 | 0.00 | 59 | 973.8 |
| 20260506023618 | 47 | 267 | 0.0 | 0.0 | 0.00 | 0.02 | 0.00 | 58 | 973.6 |
| 20260506022259 | 47 | 267 | 0.0 | 0.0 | 0.00 | 0.02 | 0.00 | 57 | 973.3 |
| 20260506021622 | 47 | 267 | 0.0 | 0.0 | 0.00 | 0.02 | 0.00 | 57 | 973.4 |
| 20260506020941 | 47 | 267 | 0.0 | 0.0 | 0.00 | 0.02 | 0.00 | 57 | 973.3 |
| 20260506020303 | 47 | 267 | 0.0 | 0.0 | 0.00 | 0.02 | 0.00 | 56 | 973.2 |
| 20260506014945 | 48 | 267 | 0.0 | 0.0 | 0.00 | 0.02 | 0.00 | 55 | 973.1 |
| 20260506014304 | 48 | 290 | 0.0 | 0.0 | 0.00 | 0.02 | 0.00 | 54 | 973.1 |
| 20260506012945 | 48 | 287 | 0.0 | 0.0 | 0.00 | 0.02 | 0.00 | 53 | 972.8 |
| 20260506012308 | 49 | 287 | 0.0 | 0.0 | 0.00 | 0.02 | 0.00 | 52 | 972.6 |
| 20260506011627 | 49 | 281 | 1.0 | 0.0 | 0.00 | 0.02 | 0.00 | 52 | 972.6 |
| 20260506010950 | 49 | 280 | 1.0 | 0.0 | 0.00 | 0.02 | 0.00 | 52 | 972.5 |
| 20260506010309 | 49 | 290 | 0.0 | 0.0 | 0.00 | 0.02 | 0.00 | 51 | 972.5 |
| 20260506005631 | 49 | 322 | 1.0 | 0.0 | 0.00 | 0.02 | 0.00 | 51 | 972.3 |
| 20260506004950 | 50 | 315 | 1.0 | 6.0 | 0.00 | 0.02 | 0.00 | 50 | 972.2 |
| 20260506003632 | 50 | 281 | 4.0 | 0.0 | 0.00 | 0.02 | 0.00 | 48 | 972.1 |
| 20260506002954 | 50 | 281 | 0.0 | 0.0 | 0.00 | 0.02 | 0.00 | 48 | 972.0 |
| 20260506002313 | 51 | 316 | 4.0 | 3.0 | 0.00 | 0.02 | 0.00 | 47 | 972.0 |
| 20260506001636 | 51 | 277 | 1.0 | 6.0 | 0.00 | 0.02 | 0.00 | 47 | 971.9 |
| 20260506000955 | 51 | 242 | 2.0 | 0.0 | 0.00 | 0.02 | 0.00 | 46 | 971.8 |
| 20260506000318 | 51 | 305 | 2.0 | 4.0 | 0.00 | 0.02 | 0.00 | 46 | 971.6 |
| 20260505235637 | 52 | 284 | 5.0 | 0.0 | 0.00 | 0.02 | 0.00 | 46 | 971.6 |
| 20260505234959 | 52 | 302 | 3.0 | 5.0 | 0.00 | 0.02 | 0.00 | 46 | 971.5 |
| 20260505234318 | 52 | 301 | 6.0 | 4.0 | 0.00 | 0.02 | 0.00 | 47 | 971.4 |
| 20260505233641 | 53 | 307 | 3.0 | 0.0 | 0.00 | 0.02 | 0.00 | 47 | 971.3 |
| 20260505233000 | 53 | 316 | 3.0 | 0.0 | 0.00 | 0.02 | 0.00 | 47 | 971.3 |
| 20260505232323 | 53 | 301 | 1.0 | 5.0 | 0.00 | 0.02 | 0.00 | 47 | 971.1 |
| 20260505231642 | 53 | 267 | 0.0 | 3.0 | 0.00 | 0.02 | 0.00 | 47 | 971.1 |
| 20260505231004 | 53 | 297 | 6.0 | 7.0 | 0.00 | 0.02 | 0.00 | 46 | 971.0 |
| 20260505230323 | 53 | 328 | 0.0 | 0.0 | 0.00 | 0.02 | 0.00 | 47 | 971.0 |
| 20260505225646 | 53 | 307 | 1.0 | 0.0 | 0.00 | 0.02 | 0.00 | 47 | 971.0 |
| 20260505225005 | 53 | 307 | 1.0 | 0.0 | 0.00 | 0.02 | 0.00 | 47 | 970.9 |
| 20260505224328 | 53 | 263 | 4.0 | 3.0 | 0.00 | 0.02 | 0.00 | 47 | 970.8 |
| 20260505223647 | 54 | 242 | 4.0 | 2.0 | 0.00 | 0.02 | 0.00 | 47 | 970.9 |
| 20260505223009 | 54 | 309 | 6.0 | 4.0 | 0.00 | 0.02 | 0.00 | 48 | 970.7 |
| 20260505222328 | 54 | 332 | 4.0 | 4.0 | 0.00 | 0.02 | 0.00 | 47 | 970.8 |
| 20260505221651 | 54 | 323 | 6.0 | 5.0 | 0.00 | 0.02 | 0.00 | 47 | 970.8 |
| 20260505221011 | 54 | 245 | 0.0 | 0.0 | 0.00 | 0.02 | 0.00 | 48 | 970.7 |
| 20260505220333 | 54 | 253 | 1.0 | 0.0 | 0.00 | 0.02 | 0.00 | 47 | 970.7 |
| 20260505215652 | 54 | 215 | 8.0 | 0.0 | 0.00 | 0.02 | 0.00 | 47 | 970.7 |
| 20260505215014 | 55 | 266 | 7.0 | 9.0 | 0.00 | 0.02 | 0.00 | 47 | 971.0 |
| 20260505214334 | 55 | 263 | 1.0 | 0.0 | 0.00 | 0.02 | 0.00 | 47 | 971.0 |
| 20260505213656 | 54 | 281 | 5.0 | 5.0 | 0.00 | 0.02 | 0.00 | 47 | 971.0 |
| 20260505213015 | 54 | 267 | 5.0 | 3.0 | 0.00 | 0.02 | 0.00 | 47 | 970.9 |
| 20260505212338 | 55 | 207 | 0.0 | 0.0 | 0.00 | 0.02 | 0.00 | 48 | 970.9 |
| 20260505211657 | 54 | 229 | 1.0 | 7.0 | 0.00 | 0.02 | 0.00 | 48 | 971.1 |
| 20260505211020 | 54 | 194 | 5.0 | 14.0 | 0.00 | 0.02 | 0.00 | 48 | 971.0 |
| 20260505210339 | 54 | 210 | 10.0 | 8.0 | 0.00 | 0.02 | 0.00 | 48 | 970.9 |
| 20260505205701 | 54 | 218 | 6.0 | 0.0 | 0.00 | 0.02 | 0.00 | 48 | 971.0 |
| 20260505205021 | 54 | 225 | 6.0 | 8.0 | 0.00 | 0.02 | 0.00 | 48 | 971.1 |
| 20260505204343 | 54 | 183 | 5.0 | 0.0 | 0.00 | 0.02 | 0.00 | 48 | 970.9 |
| 20260505203702 | 54 | 278 | 6.0 | 2.0 | 0.00 | 0.02 | 0.00 | 47 | 971.0 |
| 20260505203025 | 54 | 284 | 6.0 | 9.0 | 0.00 | 0.02 | 0.00 | 47 | 971.0 |
| 20260505202344 | 54 | 263 | 6.0 | 10.0 | 0.00 | 0.02 | 0.00 | 48 | 971.1 |
| 20260505201707 | 54 | 274 | 9.0 | 7.0 | 0.00 | 0.02 | 0.00 | 47 | 971.2 |
| 20260505201026 | 54 | 267 | 8.0 | 9.0 | 0.00 | 0.02 | 0.00 | 48 | 971.1 |
| 20260505200348 | 54 | 248 | 4.0 | 9.0 | 0.00 | 0.02 | 0.00 | 47 | 971.1 |
| 20260505195708 | 54 | 309 | 4.0 | 7.0 | 0.00 | 0.02 | 0.00 | 48 | 971.1 |
| 20260505195030 | 54 | 240 | 2.0 | 3.0 | 0.00 | 0.02 | 0.00 | 46 | 971.0 |
| 20260505194349 | 54 | 188 | 9.0 | 5.0 | 0.00 | 0.02 | 0.00 | 46 | 970.8 |
| 20260505193712 | 55 | 207 | 8.0 | 12.0 | 0.00 | 0.02 | 0.00 | 45 | 970.9 |
| 20260505193031 | 54 | 221 | 3.0 | 10.0 | 0.00 | 0.02 | 0.00 | 45 | 970.9 |
| 20260505192354 | 55 | 232 | 6.0 | 5.0 | 0.00 | 0.02 | 0.00 | 44 | 970.7 |
| 20260505191713 | 55 | 260 | 0.0 | 6.0 | 0.00 | 0.02 | 0.00 | 46 | 970.7 |
| 20260505191036 | 55 | 212 | 3.0 | 6.0 | 0.00 | 0.02 | 0.00 | 44 | 970.6 |
| 20260505190355 | 55 | 225 | 6.0 | 0.0 | 0.00 | 0.02 | 0.00 | 44 | 970.7 |
| 20260505185717 | 55 | 217 | 2.0 | 5.0 | 0.00 | 0.02 | 0.00 | 44 | 970.6 |
| 20260505185036 | 55 | 211 | 7.0 | 5.0 | 0.00 | 0.02 | 0.00 | 45 | 970.4 |
| 20260505184359 | 55 | 249 | 3.0 | 8.0 | 0.00 | 0.02 | 0.00 | 44 | 970.3 |
| 20260505183718 | 55 | 238 | 7.0 | 6.0 | 0.00 | 0.02 | 0.00 | 45 | 970.7 |
| 20260505183041 | 55 | 229 | 7.0 | 5.0 | 0.00 | 0.02 | 0.00 | 43 | 970.6 |
| 20260505182400 | 55 | 256 | 4.0 | 0.0 | 0.00 | 0.02 | 0.00 | 44 | 970.5 |
| 20260505181042 | 55 | 262 | 8.0 | 6.0 | 0.00 | 0.02 | 0.00 | 44 | 970.6 |
| 20260505180405 | 55 | 338 | 6.0 | 8.0 | 0.00 | 0.02 | 0.00 | 43 | 970.3 |
| 20260505175724 | 55 | 278 | 7.0 | 0.0 | 0.00 | 0.02 | 0.00 | 42 | 970.2 |
| 20260505175046 | 55 | 288 | 7.0 | 7.0 | 0.00 | 0.02 | 0.00 | 43 | 970.3 |
| 20260505174405 | 54 | 263 | 6.0 | 7.0 | 0.00 | 0.02 | 0.00 | 44 | 970.0 |
| 20260505173728 | 54 | 262 | 4.0 | 6.0 | 0.00 | 0.02 | 0.00 | 46 | 969.9 |
| 20260505172410 | 54 | 285 | 6.0 | 9.0 | 0.00 | 0.02 | 0.00 | 44 | 969.9 |
| 20260505171729 | 54 | 322 | 8.0 | 3.0 | 0.00 | 0.02 | 0.00 | 44 | 969.9 |
| 20260505171052 | 54 | 263 | 10.0 | 4.0 | 0.00 | 0.02 | 0.00 | 44 | 969.9 |
| 20260505170411 | 53 | 342 | 4.0 | 6.0 | 0.00 | 0.02 | 0.00 | 46 | 970.0 |
| 20260505165734 | 54 | 252 | 8.0 | 0.0 | 0.00 | 0.02 | 0.00 | 44 | 970.0 |
| 20260505165053 | 54 | 262 | 4.0 | 4.0 | 0.00 | 0.02 | 0.00 | 44 | 969.9 |
| 20260505164416 | 54 | 297 | 4.0 | 5.0 | 0.00 | 0.02 | 0.00 | 44 | 970.0 |
| 20260505163735 | 54 | 270 | 6.0 | 6.0 | 0.00 | 0.02 | 0.00 | 43 | 970.1 |
| 20260505163057 | 53 | 328 | 6.0 | 0.0 | 0.00 | 0.02 | 0.00 | 45 | 970.1 |
| 20260505162417 | 53 | 318 | 5.0 | 6.0 | 0.00 | 0.02 | 0.00 | 43 | 970.2 |
| 20260505161739 | 53 | 259 | 4.0 | 7.0 | 0.00 | 0.02 | 0.00 | 45 | 970.2 |
| 20260505161058 | 53 | 307 | 8.0 | 5.0 | 0.00 | 0.02 | 0.00 | 44 | 970.2 |
| 20260505160421 | 53 | 245 | 10.0 | 5.0 | 0.00 | 0.02 | 0.00 | 43 | 970.3 |
| 20260505153104 | 51 | 243 | 7.0 | 0.0 | 0.00 | 0.02 | 0.00 | 47 | 970.3 |
| 20260505152427 | 51 | 316 | 7.0 | 9.0 | 0.00 | 0.02 | 0.00 | 47 | 970.6 |
| 20260505151746 | 51 | 177 | 6.0 | 5.0 | 0.00 | 0.02 | 0.00 | 46 | 970.5 |
| 20260505151109 | 51 | 305 | 7.0 | 8.0 | 0.00 | 0.02 | 0.00 | 47 | 970.5 |
| 20260505150428 | 51 | 301 | 7.0 | 7.0 | 0.00 | 0.02 | 0.00 | 47 | 970.8 |
| 20260505140438 | 49 | 248 | 2.0 | 0.0 | 0.00 | 0.02 | 0.00 | 59 | 970.7 |
| 20260505124449 | 48 | 277 | 4.0 | 0.0 | 0.00 | 0.02 | 0.00 | 73 | 969.6 |